Other Surface Observations
Issued by NWS Tucson, AZ

Home | Current Version | Previous Version | Text Only | Print | Product List | Glossary On
Versions: 1 2 3 4 5 6 7 8 9 10 11 12 13 14 15 16 17 18 19 20 21 22 23 24 25 26 27 28 29 30 31 32 33 34 35 36 37 38 39 40 41 42 43 44 45 46 47 48 49 50
000
SXUS55 KTWC 261915
OSOTWC

WEATHER ROUNDUP FOR SOUTHEAST ARIZONA
NATIONAL WEATHER SERVICE TUCSON AZ
1215 PM MST SUN APR 26 2015

AZZ504>506-514-262015-
LOCATION       SKY/WX    TMP DP  RH WIND       PRES   REMARKS
TUCSON         PTSUNNY   65  38  36 W13G28    29.90F
DAVIS-MONTHAN  MOSUNNY   64  39  39 W18       29.87F
CHILDRENS PARK N/A       61  41  48 W8                PIMA CO DEQ
ALVERNON/22ND  N/A      N/A N/A N/A N/A               PIMA CO DEQ
CHERRY/GLENN   N/A      N/A N/A N/A N/A               PIMA CO DEQ
TANGERINE      N/A       60 N/A N/A W8                PIMA CO DEQ
CONTL RANCH    N/A       63  42  46 W9                PIMA CO DEQ
GRANT/1ST      N/A       62  41  46 N2                PIMA CO DEQ
CRAYCROFT/22ND N/A      N/A N/A N/A N/A               PIMA CO DEQ
GOLFLINKS/KOLB N/A      N/A N/A N/A N/A               PIMA CO DEQ
AJO/12TH       N/A       64  40  42 W11               PIMA CO DEQ
SAGUARO EAST   N/A      N/A N/A N/A N/A               PIMA CO DEQ
FAIRGROUNDS    N/A       61 N/A N/A W17               PIMA CO DEQ
SAGUARO        N/A       61  40  46 W9G19             *SABINO CYN
SAN CARLOS     N/A       56  47  71 SW5G10            *SAN CARLOS
GREEN VALLEY   N/A       63  36  37 NW7               PIMA CO DEQ
HORSE CAMP CYN N/A       45  44  96 W13G19            *ARAVAIPA CYN
RINCON MTNS    N/A       33  33  98 W9G20             *NR MANNING CAMP
$$

AZZ509>511-262015-
LOCATION       SKY/WX    TMP DP  RH WIND       PRES   REMARKS
SAFFORD        CLOUDY    53  45  74 NW17G24   29.84F
STRAY HORSE    N/A       36  33  89 W12G18            *
TRAIL CABIN    N/A       42  39  90 W7G13             *N OF GRANVILLE
BLACK HILLS    N/A       53  45  73 CALM              *N OF FT THOMAS
DRY LAKE       N/A       39  37  92 W3G10             *NATANES MTNS
NOON CREEK     N/A       46  44  92 NE6G11            *PINALENO MTNS
COLUMBINE      N/A       28  25  87 S8G17             *PINALENO MTNS
GUTHRIE        N/A       38  38  100 W12G28           *SW OF GUTHRIE
$$

AZZ502-503-513-262015-
LOCATION       SKY/WX    TMP DP  RH WIND       PRES   REMARKS
NOGALES        MOSUNNY   65  31  28 NW13G29   29.91F
SELLS          N/A       67  37  33 W9G21             *
SASABE         N/A       63  36  37 CALM              *ALTAR VLY
HOPKINS        N/A       45  37  73 W15G24            *SANTA RITA MTNS
CARR CYN       N/A       59  29  32 N4G12             *W OF HEREFORD
$$

AZZ507-508-512-262015-
LOCATION       SKY/WX    TMP DP  RH WIND       PRES   REMARKS
SIERRA VISTA   PTSUNNY   60  28  29 W29       29.90S
DOUGLAS        CLOUDY    62  27  26 W18G28    29.87F
EMPIRE MTNS    N/A       58  32  37 W19G31            *LAS CIENEGAS NCA
MULESHOE RANCH N/A       49  42  77 W8G20             *PRESERVE
HEADQUARTERS   N/A       48  36  62 W9G24             *CHIRICAHUA MTNS
$$

.............................NOTES.............................
THIS IS AN AUTOMATED COLLECTIVE WITH MINIMAL QUALITY CONTROL.
PIMA CO DEQ SITES HAVE NONSTANDARD WIND SENSOR HEIGHTS.
PIMA CO DEQ SITES DO NOT REPORT WIND GUSTS.
* INDICATES WIND SENSORS LOCATED AT 20 FEET INSTEAD OF 33 FEET.
..............................KEY..............................
SKY/WX - SKY CONDITION/WEATHER
TMP    - TEMPERATURE IN FAHRENHEIT
DP     - DEWPOINT IN FAHRENHEIT
RH     - RELATIVE HUMIDITY IN PERCENT
WIND   - DIRECTION AND SPEED IN MILES PER HOUR (MPH)
VRB    - VARIABLE WIND DIRECTION
PRES   - MEAN SEA LEVEL PRESSURE IN INCHES OF MERCURY
         F - FALLING PRESSURE   R - RISING PRESSURE
         S - STEADY PRESSURE
VSB    - VISIBILITY IN MILES
HX     - HEAT INDEX IN FAHRENHEIT
WCI    - WIND CHILL INDEX IN FAHRENHEIT
N/A    - NOT AVAILABLE
AFB    - AIR FORCE BASE
         DAVIS-MONTHAN IS DAVIS-MONTHAN AIR FORCE BASE
CYN    - CANYON
MTNS   - MOUNTAINS
NCA    - NATIONAL CONSERVATION AREA
NR     - NEAR
VLY    - VALLEY
CONTL  - CONTINENTAL
PIMA CO DEQ - PIMA COUNTY DEPT OF ENVIRONMENTAL QUALITY



USA.gov is the U.S. government's official web portal to all federal, state and local government web resources and services.